Showing default

WILDFIRE 6, 57763

Orbit data source: Space-Track

WILDFIRE 6, 57763 is a payload satellite owned by SDA (US) in LEO that was launched on Sat, 02 Sep 2023 UTC via an FALCON 9 launch vehicle from the Air Force Western Test Range (AFWTR). Payload-class satellites include a variety of spacecraft equipped with specific instruments for various scientific and technological missions. These include communications satellites like Starlink; space stations such as the ISS; scientific satellites like the Hubble; Earth observation satellites from companies like Planet Labs, Umbra, and HawkEye 360; GPS; miniature CubeSats for education and research; and military/defense satellites.

Loading next visibility...
Identifier
57763, 2023-133G
Orbit
LEO
Country
Flag of USUS
Related business
Manufacturer
TYVAK/LMSSD
Mission
Operational Defense Communications
Bus & Motor
MAVERICKS, Unknown motor
Mass
~300 kg wet, ~300 kg dry
Launch date (UTC)
2023-09-02 (2 years ago)
Launch vehicle
FALCON 9
Launch site
Air Force Western Test Range (AFWTR)
Object type
Payload
Rocket body
Debris
Shape & HBR
Box + 2 Pan, 1.3 m
Radar Cross Section
0.713 m², Large (>1 m²)

Expand to show TLE details & history
Last TLE update: 7 hours ago

TLE from 7 hours ago
0 WILDFIRE 6
1 57763U 23133G   25346.98288070  .00000139  00000-0  11300-3 0  9993
2 57763  80.9939 185.9597 0005961 155.7668 204.3770 13.85298964115231
Epoch: 2025-12-12T23:35Z
TLE epoch observation values (Epoch: 2025-12-12T23:35:20.892Z)
Latitude
Longitude
110.20597°
Altitude
951.987 km
Speed
7.374 km/s
True Right ascension
12h 23m 50s
True Declination
0° 00' 00"
Sunlit
Object was in daylight at epoch
Visualization orbit readout
Latitude
Unknown
Longitude
Unknown
Altitude
Unknown
Speed
Unknown
Apparent Right ascension
Unknown
Apparent Declination
Unknown
Sunlit
N/A
Visualization observer readout
Local Sidereal Time
05:22:27
Azimuth
Unknown
Elevation
Unknown
Doppler factor
Unknown
Orbital elements
Apogee altitude
946.735 km
Perigee altitude
938.008 km
Semi-major axis
7,320.508 km
Eccentricity
0.0006
Inclination
80.9939°
RAAN
185.9597°
Arg. of periapsis
155.7668°
True anomaly
204.34883°
Mean anomaly
204.377°
Eccentric anomaly
204.36291°
Mean motion
3.46522 °/min
Orbital period
103.89 mins
BSTAR
0.000113
Loading maneuver chart data...
Computing Atmospheric mass density...
Loading historical data...
Loading historical data...
Loading historical data...
Loading historical data...
Loading historical data...
Loading historical data...
Loading historical data...

Documentation

Showing up to 5 results
|